| time (UTC) | temp F | wind direction | speed MPH | gust MPH | rain 1hr in | rain 24hr in | rain mn in | humidity % | barometer mb |
| 20260906043050 | 87 | 229 | 0.0 | 3.0 | 0.00 | 0.00 | 0.00 | 49 | 1007.8 |
| 20260906041546 | 88 | 229 | 0.0 | 2.0 | 0.00 | 0.00 | 0.00 | 48 | 1007.8 |
| 20260906040045 | 88 | 184 | 1.0 | 2.0 | 0.00 | 0.00 | 0.00 | 47 | 1007.9 |
| 20260906034558 | 89 | 160 | 0.0 | 3.0 | 0.00 | 0.00 | 0.00 | 47 | 1007.9 |
| 20260906033045 | 89 | 226 | 0.0 | 1.0 | 0.00 | 0.00 | 0.00 | 47 | 1007.8 |
| 20260906031543 | 89 | 226 | 0.0 | 2.0 | 0.00 | 0.00 | 0.00 | 46 | 1007.7 |
| 20260906030044 | 90 | 232 | 0.0 | 1.0 | 0.00 | 0.00 | 0.00 | 46 | 1007.8 |
| 20260906024541 | 90 | 232 | 0.0 | 2.0 | 0.00 | 0.00 | 0.00 | 45 | 1007.6 |
| 20260906023042 | 90 | 233 | 0.0 | 2.0 | 0.00 | 0.00 | 0.00 | 46 | 1007.5 |
| 20260906021544 | 90 | 243 | 0.0 | 1.0 | 0.00 | 0.00 | 0.00 | 46 | 1007.3 |
| 20260906020041 | 90 | 243 | 0.0 | 2.0 | 0.00 | 0.00 | 0.00 | 46 | 1007.1 |
| 20260906014548 | 91 | 243 | 0.0 | 1.0 | 0.00 | 0.00 | 0.00 | 44 | 1007.0 |
| 20260906013040 | 92 | 245 | 0.0 | 1.0 | 0.00 | 0.00 | 0.00 | 43 | 1006.8 |
| 20260906011540 | 93 | 134 | 0.0 | 3.0 | 0.00 | 0.00 | 0.00 | 41 | 1006.6 |
| 20260906010050 | 94 | 146 | 0.0 | 4.0 | 0.00 | 0.00 | 0.00 | 40 | 1006.5 |
| 20260906004549 | 95 | 139 | 0.0 | 3.0 | 0.00 | 0.00 | 0.00 | 39 | 1006.4 |
| 20260906003040 | 96 | 131 | 0.0 | 4.0 | 0.00 | 0.00 | 0.00 | 38 | 1006.3 |
| 20260906001554 | 98 | 146 | 1.0 | 5.0 | 0.00 | 0.00 | 0.00 | 36 | 1006.2 |
| 20260906000037 | 98 | 264 | 0.0 | 4.0 | 0.00 | 0.00 | 0.00 | 36 | 1006.2 |
| 20260905234538 | 98 | 129 | 0.0 | 8.0 | 0.00 | 0.00 | 0.00 | 36 | 1006.0 |
| 20260905233036 | 99 | 136 | 0.0 | 4.0 | 0.00 | 0.00 | 0.00 | 35 | 1005.9 |
| 20260905231536 | 101 | 219 | 0.0 | 4.0 | 0.00 | 0.00 | 0.00 | 33 | 1005.8 |
| 20260905230038 | 102 | 143 | 1.0 | 6.0 | 0.00 | 0.00 | 0.00 | 33 | 1005.9 |
| 20260905224535 | 103 | 149 | 0.0 | 3.0 | 0.00 | 0.00 | 0.00 | 32 | 1005.8 |
| 20260905223046 | 102 | 142 | 0.0 | 3.0 | 0.00 | 0.00 | 0.00 | 33 | 1005.8 |
| 20260905221534 | 102 | 307 | 3.0 | 7.0 | 0.00 | 0.00 | 0.00 | 33 | 1005.7 |
| 20260905220031 | 102 | 156 | 2.0 | 6.0 | 0.00 | 0.00 | 0.00 | 33 | 1005.9 |
| 20260905214529 | 102 | 150 | 3.0 | 7.0 | 0.00 | 0.00 | 0.00 | 33 | 1006.0 |
| 20260905213027 | 101 | 167 | 0.0 | 7.0 | 0.00 | 0.00 | 0.00 | 34 | 1006.2 |
| 20260905211525 | 102 | 233 | 2.0 | 6.0 | 0.00 | 0.00 | 0.00 | 33 | 1006.5 |
| 20260905210032 | 102 | 231 | 0.0 | 6.0 | 0.00 | 0.00 | 0.00 | 34 | 1006.6 |
| 20260905204520 | 101 | 126 | 2.0 | 7.0 | 0.00 | 0.00 | 0.00 | 34 | 1006.9 |
| 20260905203018 | 101 | 250 | 2.0 | 8.0 | 0.00 | 0.00 | 0.00 | 34 | 1007.2 |
| 20260905201522 | 103 | 121 | 0.0 | 7.0 | 0.00 | 0.00 | 0.00 | 32 | 1007.4 |
| 20260905200010 | 102 | 121 | 1.0 | 8.0 | 0.00 | 0.00 | 0.00 | 34 | 1007.6 |
| 20260905194507 | 102 | 255 | 1.0 | 7.0 | 0.00 | 0.00 | 0.00 | 34 | 1007.8 |
| 20260905193014 | 101 | 224 | 1.0 | 6.0 | 0.00 | 0.00 | 0.00 | 35 | 1008.1 |
| 20260905191505 | 100 | 225 | 2.0 | 9.0 | 0.00 | 0.00 | 0.00 | 35 | 1008.2 |
| 20260905190002 | 101 | 152 | 3.0 | 7.0 | 0.00 | 0.00 | 0.00 | 36 | 1008.6 |
| 20260905184607 | 100 | 91 | 2.0 | 6.0 | 0.00 | 0.00 | 0.00 | 37 | 1008.8 |
| 20260905183057 | 99 | 81 | 1.0 | 5.0 | 0.00 | 0.00 | 0.00 | 38 | 1008.9 |
| 20260905181558 | 100 | 219 | 1.0 | 5.0 | 0.00 | 0.00 | 0.00 | 37 | 1009.1 |
| 20260905180055 | 100 | 245 | 0.0 | 6.0 | 0.00 | 0.00 | 0.00 | 40 | 1009.2 |
| 20260905174558 | 99 | 227 | 1.0 | 6.0 | 0.00 | 0.00 | 0.00 | 39 | 1009.4 |
| 20260905173055 | 100 | 44 | 0.0 | 5.0 | 0.00 | 0.00 | 0.00 | 40 | 1009.5 |
| 20260905171550 | 98 | 139 | 1.0 | 4.0 | 0.00 | 0.00 | 0.00 | 41 | 1009.8 |
| 20260905170047 | 97 | 150 | 1.0 | 7.0 | 0.00 | 0.00 | 0.00 | 42 | 1009.8 |
| 20260905164545 | 97 | 283 | 2.0 | 8.0 | 0.00 | 0.00 | 0.00 | 42 | 1009.8 |
| 20260905163041 | 96 | 246 | 1.0 | 5.0 | 0.00 | 0.00 | 0.00 | 44 | 1009.9 |
| 20260905161538 | 94 | 305 | 0.0 | 4.0 | 0.00 | 0.00 | 0.00 | 47 | 1009.9 |
| 20260905160033 | 94 | 262 | 1.0 | 5.0 | 0.00 | 0.00 | 0.00 | 48 | 1009.9 |
| 20260905154529 | 92 | 226 | 1.0 | 7.0 | 0.00 | 0.00 | 0.00 | 50 | 1009.9 |
| 20260905153032 | 90 | 279 | 1.0 | 5.0 | 0.00 | 0.00 | 0.00 | 51 | 1009.8 |
| 20260905151521 | 89 | 238 | 1.0 | 5.0 | 0.00 | 0.00 | 0.00 | 54 | 1009.8 |
| 20260905150023 | 87 | 277 | 1.0 | 7.0 | 0.00 | 0.00 | 0.00 | 56 | 1009.8 |
| 20260905144517 | 86 | 311 | 2.0 | 6.0 | 0.00 | 0.00 | 0.00 | 57 | 1009.8 |
| 20260905143023 | 85 | 269 | 1.0 | 5.0 | 0.00 | 0.00 | 0.00 | 59 | 1009.8 |
| 20260905141514 | 83 | 169 | 0.0 | 5.0 | 0.00 | 0.00 | 0.00 | 62 | 1009.7 |
| 20260905140015 | 82 | 225 | 1.0 | 5.0 | 0.00 | 0.00 | 0.00 | 64 | 1009.7 |
| 20260905134523 | 81 | 272 | 1.0 | 7.0 | 0.00 | 0.00 | 0.00 | 65 | 1009.6 |
| 20260905133011 | 80 | 226 | 1.0 | 6.0 | 0.00 | 0.00 | 0.00 | 66 | 1009.5 |
| 20260905131510 | 80 | 240 | 1.0 | 5.0 | 0.00 | 0.00 | 0.00 | 67 | 1009.4 |
| 20260905130008 | 79 | 142 | 0.0 | 4.0 | 0.00 | 0.00 | 0.00 | 68 | 1009.3 |
| 20260905124508 | 79 | 252 | 1.0 | 4.0 | 0.00 | 0.00 | 0.00 | 69 | 1009.1 |
| 20260905123014 | 79 | 193 | 1.0 | 3.0 | 0.00 | 0.00 | 0.00 | 68 | 1009.0 |
| 20260905121503 | 79 | 136 | 0.0 | 4.0 | 0.00 | 0.00 | 0.00 | 67 | 1009.0 |
| 20260905120002 | 79 | 203 | 1.0 | 4.0 | 0.00 | 0.00 | 0.00 | 67 | 1008.7 |
| 20260905114600 | 79 | 181 | 1.0 | 4.0 | 0.00 | 0.00 | 0.00 | 67 | 1008.6 |
| 20260905113106 | 79 | 259 | 1.0 | 4.0 | 0.00 | 0.00 | 0.00 | 66 | 1008.6 |
| 20260905111601 | 80 | 160 | 0.0 | 4.0 | 0.00 | 0.00 | 0.00 | 66 | 1008.7 |
| 20260905110057 | 80 | 217 | 1.0 | 4.0 | 0.00 | 0.00 | 0.00 | 66 | 1008.8 |
| 20260905104557 | 80 | 239 | 1.0 | 4.0 | 0.00 | 0.00 | 0.00 | 66 | 1008.8 |
| 20260905103100 | 80 | 235 | 0.0 | 4.0 | 0.00 | 0.00 | 0.00 | 66 | 1008.8 |
| 20260905101556 | 80 | 266 | 1.0 | 5.0 | 0.00 | 0.00 | 0.00 | 65 | 1008.6 |
| 20260905100058 | 81 | 249 | 0.0 | 4.0 | 0.00 | 0.00 | 0.00 | 65 | 1008.6 |
| 20260905094550 | 81 | 146 | 1.0 | 6.0 | 0.00 | 0.00 | 0.00 | 65 | 1008.7 |
| 20260905093049 | 81 | 249 | 1.0 | 5.0 | 0.00 | 0.00 | 0.00 | 64 | 1008.6 |
| 20260905091553 | 82 | 224 | 0.0 | 3.0 | 0.00 | 0.00 | 0.00 | 63 | 1008.7 |
| 20260905090045 | 82 | 139 | 1.0 | 5.0 | 0.00 | 0.00 | 0.00 | 62 | 1008.6 |
| 20260905084600 | 82 | 156 | 1.0 | 4.0 | 0.00 | 0.00 | 0.00 | 62 | 1008.6 |
| 20260905083040 | 83 | 273 | 1.0 | 6.0 | 0.00 | 0.00 | 0.00 | 61 | 1008.5 |
| 20260905081540 | 83 | 167 | 2.0 | 7.0 | 0.00 | 0.00 | 0.00 | 61 | 1008.2 |
| 20260905080107 | 83 | 215 | 2.0 | 7.0 | 0.00 | 0.00 | 0.00 | 60 | 1008.2 |
| 20260905074537 | 84 | 332 | 2.0 | 8.0 | 0.00 | 0.00 | 0.00 | 60 | 1008.1 |
| 20260905073035 | 84 | 251 | 2.0 | 8.0 | 0.00 | 0.00 | 0.00 | 59 | 1008.2 |
| 20260905071535 | 84 | 200 | 2.0 | 6.0 | 0.00 | 0.00 | 0.00 | 58 | 1008.3 |
| 20260905070038 | 85 | 268 | 2.0 | 6.0 | 0.00 | 0.00 | 0.00 | 58 | 1008.3 |
| 20260905064530 | 85 | 262 | 2.0 | 7.0 | 0.00 | 0.00 | 0.00 | 57 | 1008.4 |
| 20260905063031 | 85 | 305 | 2.0 | 6.0 | 0.00 | 0.00 | 0.00 | 57 | 1008.4 |
| 20260905061527 | 86 | 160 | 2.0 | 7.0 | 0.00 | 0.00 | 0.00 | 56 | 1008.5 |
| 20260905060040 | 86 | 176 | 1.0 | 7.0 | 0.00 | 0.00 | 0.00 | 55 | 1008.4 |
| 20260905054521 | 87 | 236 | 4.0 | 8.0 | 0.00 | 0.00 | 0.00 | 55 | 1008.4 |
| 20260905053020 | 87 | 200 | 2.0 | 8.0 | 0.00 | 0.00 | 0.00 | 54 | 1008.5 |
| 20260905051523 | 87 | 226 | 1.0 | 7.0 | 0.00 | 0.00 | 0.00 | 53 | 1008.5 |
| 20260905050019 | 88 | 233 | 1.0 | 6.0 | 0.00 | 0.00 | 0.00 | 53 | 1008.5 |